Wind_Speed
17 17 17 16 16 16 16 15 15 16 17 17 18 18 18 18 18 19 19 19 19 20 21 21 21 22 21 22 23 23 24 24 24 24 25 25 26 27 28 30 30 29 30
17 17 16 16 16 16 16 15 16 17 17 17 17 16 16 17 18 18 18 18 18 18 19 20 20 21 21 21 21 22 22 22 23 23 23 25 25 26 27 27 28 28 28
17 16 16 16 16 16 16 16 17 17 17 16 15 15 16 17 17 17 17 17 17 18 18 19 20 20 20 20 20 20 20 20 21 22 23 24 24 24 25 25 27 27 28
16 15 15 16 17 16 16 16 16 16 15 14 14 15 16 17 17 16 15 15 16 16 17 18 19 19 19 18 19 18 18 19 20 21 22 22 23 24 24 25 26 27 28
15 15 15 16 16 15 15 15 15 15 14 14 14 15 16 16 16 14 13 14 15 16 17 17 18 17 17 18 17 17 17 19 20 21 21 21 22 23 24 25 26 27 28
15 15 15 15 15 15 14 14 14 14 13 13 14 15 15 15 15 14 14 15 16 16 16 17 17 17 18 18 18 18 19 19 20 20 21 22 22 23 24 25 25 26 27
15 15 15 15 15 14 14 14 14 13 13 13 13 14 15 15 15 15 15 15 16 17 18 19 19 19 20 21 20 20 20 19 20 20 21 22 22 23 24 25 25 26 27
16 16 15 15 14 14 14 14 13 13 13 13 14 14 15 15 15 16 16 16 17 18 19 20 21 21 22 22 21 22 21 21 21 22 22 23 23 23 24 25 25 26 27
17 16 15 14 14 13 13 13 13 13 13 13 14 15 15 16 16 16 16 16 17 19 20 21 22 23 23 23 23 23 22 22 22 22 23 24 24 24 25 26 26 27 27
16 15 15 15 14 13 13 13 13 13 13 14 15 15 16 16 16 17 17 18 18 20 21 22 23 24 24 25 24 24 23 23 23 23 23 24 24 24 25 25 26 26 26
16 16 15 15 14 14 13 13 13 13 14 14 15 16 16 16 17 17 18 19 20 21 22 23 24 25 25 25 25 24 23 23 24 24 24 24 24 24 24 25 25 26 26
16 16 15 14 14 13 13 13 14 13 14 15 16 17 17 17 17 18 19 20 21 22 23 24 24 25 25 26 25 25 24 24 24 23 23 23 24 24 24 24 25 25 26
16 15 14 13 13 13 12 13 13 13 14 15 16 17 17 17 18 19 20 21 22 23 24 25 25 26 26 26 27 26 25 25 25 24 24 24 24 24 24 24 24 25 25
16 15 14 14 14 13 13 13 13 14 14 15 16 17 17 18 19 20 21 22 23 23 24 25 26 26 26 26 26 26 25 25 24 24 24 24 24 24 25 25 24 24 23
16 15 15 14 14 14 14 14 14 14 14 15 16 17 17 18 20 21 22 22 22 23 24 25 25 26 27 27 26 26 26 25 25 24 24 24 25 25 25 25 24 23 22
15 15 15 15 15 15 14 14 14 15 15 16 16 17 18 19 20 21 22 22 22 23 24 25 26 26 27 27 26 26 26 26 25 25 24 24 25 25 25 24 23 22 21
15 14 15 16 16 15 14 14 14 15 16 17 17 17 18 19 20 21 22 22 23 24 24 25 26 26 26 27 26 26 26 26 25 25 24 24 24 24 24 23 22 21 20
15 15 16 16 16 15 15 15 14 15 15 16 16 17 18 18 20 21 21 23 23 24 24 24 25 25 26 27 27 26 25 25 25 24 24 24 23 23 23 22 21 20 19
16 16 16 16 16 16 15 15 15 15 15 16 16 17 18 19 19 20 22 23 24 25 25 24 25 25 26 27 26 26 25 24 24 24 24 24 23 23 22 21 20 19 18
17 17 17 17 17 16 15 15 15 15 15 16 17 17 18 19 20 21 22 23 24 24 25 25 25 25 26 27 27 26 25 24 24 24 24 24 23 22 21 20 19 18 18
17 17 17 17 17 16 16 15 15 15 15 16 17 18 19 20 21 21 22 23 24 24 25 25 25 26 27 27 27 26 25 25 24 24 24 23 22 21 20 19 18 18 18
18 18 18 17 17 16 15 15 15 16 16 17 18 18 19 20 21 21 22 23 24 25 26 25 26 26 27 27 27 26 25 25 25 24 24 23 23 21 20 19 19 19 18
19 19 18 18 17 17 16 15 16 17 17 17 18 19 19 20 21 21 22 22 24 25 25 25 26 26 26 26 26 26 25 25 24 24 24 23 23 21 20 19 19 19 18
19 19 19 18 18 17 16 16 16 16 17 18 19 19 20 20 20 21 22 23 24 24 25 26 26 25 25 25 25 25 24 24 24 23 22 22 22 22 21 20 19 18 18
20 19 18 18 17 16 16 16 16 17 17 18 19 20 20 20 21 22 22 23 24 24 25 26 26 25 24 24 25 24 24 23 23 23 23 22 22 22 21 20 19 18 18
18 18 18 18 17 17 17 17 17 18 18 19 20 20 20 21 22 23 23 24 24 24 25 25 25 25 24 24 24 24 24 23 22 23 22 22 21 21 20 19 19 18 18
Wind_Direction
321 322 321 323 323 321 319 319 319 318 315 314 313 312 311 309 306 304 302 300 298 297 297 297 298 297 296 293 290 285 281 279 277 275 274 273 271 270 268 267 265 263 262
323 323 323 323 323 322 321 322 323 323 321 319 317 316 315 314 312 310 307 305 304 303 303 304 303 302 300 298 294 289 285 281 278 277 277 276 277 276 274 270 267 266 265
321 321 324 326 325 325 323 323 322 323 325 326 324 322 321 319 317 316 311 308 307 307 308 310 310 308 306 304 303 297 290 286 283 281 279 278 278 279 278 275 271 268 267
322 321 322 325 326 326 325 324 323 325 328 330 327 326 326 325 323 322 320 318 315 313 312 313 316 315 313 311 312 307 297 293 290 286 284 283 281 279 277 275 272 269 268
325 323 323 325 327 327 327 326 326 327 328 328 328 329 330 329 330 329 327 326 325 322 320 320 319 318 317 317 315 310 304 299 295 291 289 288 286 282 279 276 274 271 270
324 323 325 328 327 326 327 326 325 326 327 329 330 331 332 333 333 331 328 326 325 325 326 326 325 322 321 321 319 314 307 304 299 294 292 291 290 286 283 280 278 276 273
324 324 326 327 326 325 325 325 324 327 329 329 329 332 334 333 331 330 330 330 330 330 330 329 328 327 324 322 321 318 313 307 302 298 296 294 292 289 286 284 282 280 276
321 321 322 323 323 322 322 323 326 326 326 328 330 331 334 334 332 329 328 329 330 331 331 331 328 327 324 323 321 319 317 312 308 304 301 299 296 295 291 288 285 282 278
318 319 319 320 321 320 320 321 323 325 324 325 326 329 332 335 334 333 330 330 332 332 331 330 329 327 326 324 322 320 318 315 312 308 305 303 301 298 295 290 288 284 280
313 314 316 317 318 318 318 321 322 324 326 327 327 328 330 332 332 332 331 331 331 330 329 329 330 330 329 327 325 322 319 317 315 313 310 307 304 302 300 296 291 289 284
310 312 314 313 315 316 315 319 320 322 324 326 328 328 329 329 331 331 331 330 330 330 330 330 331 331 331 330 329 326 323 321 319 317 315 312 309 306 303 300 297 294 289
310 310 310 310 311 314 314 315 318 319 321 325 327 328 329 330 331 332 331 331 331 331 331 331 332 331 329 329 329 327 324 323 322 321 319 317 314 311 307 302 299 297 293
310 309 308 308 310 312 314 316 317 317 320 323 326 329 330 330 331 332 331 331 330 331 331 332 331 330 329 329 329 328 326 324 323 321 320 318 316 314 312 308 304 300 297
307 305 303 304 307 309 310 314 318 320 322 324 326 329 331 330 330 331 330 330 331 332 331 331 331 331 331 331 331 330 329 327 325 324 323 321 320 318 315 312 309 305 299
301 300 300 300 303 303 304 308 312 317 319 322 324 326 329 330 331 332 332 332 333 334 333 333 334 333 333 334 334 333 331 329 326 324 323 322 321 320 319 317 313 308 303
296 296 299 299 301 302 302 304 309 313 316 320 323 325 327 328 331 333 334 333 333 333 333 334 335 335 334 334 333 332 331 329 328 326 325 323 322 321 321 319 318 315 309
294 295 298 300 301 301 300 302 306 310 314 318 320 323 325 328 330 331 333 334 334 334 334 336 336 336 335 334 333 331 330 330 329 329 328 327 326 325 325 323 321 319 315
290 292 294 297 299 300 299 302 305 309 313 317 319 322 325 328 330 331 333 334 335 335 335 336 337 337 336 336 335 334 333 334 334 334 333 332 331 330 329 328 327 324 321
287 290 292 295 298 299 298 299 302 306 311 315 319 322 325 327 329 331 332 334 335 335 335 335 335 336 336 336 337 337 336 337 337 337 337 335 335 334 333 333 331 328 326
283 287 291 293 295 295 295 296 299 304 308 312 317 321 323 325 327 328 330 332 334 334 334 335 335 335 336 337 338 337 338 338 339 340 341 340 340 338 337 336 336 335 333
283 285 288 292 292 291 292 293 297 302 307 310 314 318 322 324 325 326 328 329 331 333 334 334 335 336 337 337 338 338 338 339 340 342 343 344 343 343 341 339 339 338 336
283 285 286 288 289 288 288 289 293 298 304 308 311 315 320 322 324 325 328 330 332 333 334 334 335 335 335 336 337 338 339 339 340 341 343 345 344 342 342 342 342 340 338
281 281 283 283 283 283 282 285 290 297 303 309 312 315 319 323 326 327 329 330 332 333 334 334 334 334 334 335 336 337 336 336 338 340 342 343 342 342 342 343 342 341 340
280 278 279 282 280 280 281 283 288 295 302 309 314 316 319 321 324 327 328 328 329 331 333 334 334 334 334 334 335 336 336 337 339 340 341 341 341 341 341 341 342 343 343
280 278 278 279 277 278 280 283 288 293 299 306 310 314 316 318 321 324 325 327 328 329 331 332 334 334 334 334 334 333 334 335 337 338 339 340 339 339 341 341 341 342 343
280 277 275 276 275 277 280 282 287 292 297 303 308 312 314 317 318 321 323 325 327 328 331 333 334 334 333 333 333 332 333 334 335 336 337 338 339 340 342 342 342 343 344
Height
5762 5760 5757 5754 5752 5750 5748 5745 5743 5740 5738 5735 5732 5729 5726 5724 5721 5719 5717 5715 5713 5711 5709 5708 5705 5703 5701 5699 5697 5695 5694 5692 5692 5692 5691 5690 5689 5688 5688 5688 5688 5689 5689
5758 5756 5754 5751 5749 5746 5744 5742 5739 5737 5734 5730 5728 5725 5723 5720 5717 5715 5712 5710 5708 5706 5705 5702 5700 5697 5695 5692 5690 5688 5687 5685 5684 5684 5683 5682 5681 5680 5679 5679 5679 5679 5680
5755 5753 5751 5748 5746 5744 5741 5739 5736 5733 5730 5727 5724 5722 5719 5717 5714 5711 5709 5706 5704 5702 5700 5698 5695 5692 5689 5687 5684 5682 5680 5679 5678 5677 5676 5675 5673 5672 5671 5671 5670 5670 5671
5751 5749 5748 5746 5744 5741 5738 5736 5733 5730 5727 5724 5722 5720 5717 5714 5711 5708 5705 5703 5701 5698 5695 5693 5690 5687 5684 5682 5679 5677 5675 5673 5671 5670 5668 5667 5666 5665 5664 5663 5662 5662 5662
5749 5747 5745 5743 5741 5738 5736 5733 5731 5728 5725 5723 5720 5717 5714 5711 5708 5705 5703 5700 5698 5695 5692 5689 5686 5683 5680 5677 5674 5672 5670 5668 5666 5664 5662 5660 5659 5657 5656 5655 5654 5654 5654
5746 5744 5742 5740 5738 5736 5734 5731 5729 5726 5724 5721 5718 5715 5712 5709 5706 5703 5700 5697 5695 5691 5688 5685 5682 5679 5676 5673 5670 5667 5665 5662 5660 5658 5656 5654 5652 5650 5648 5647 5646 5646 5646
5744 5742 5740 5738 5736 5734 5732 5729 5727 5724 5722 5719 5716 5713 5710 5707 5704 5701 5698 5695 5692 5689 5685 5682 5679 5676 5672 5669 5666 5663 5660 5657 5654 5652 5650 5647 5645 5643 5641 5640 5638 5637 5636
5741 5739 5737 5736 5734 5732 5730 5727 5725 5723 5720 5717 5715 5711 5708 5705 5702 5698 5695 5692 5689 5686 5683 5679 5676 5672 5668 5665 5661 5658 5655 5651 5648 5645 5643 5640 5637 5635 5633 5631 5629 5628 5626
5739 5737 5735 5734 5732 5730 5727 5725 5723 5721 5718 5715 5712 5709 5706 5703 5699 5696 5693 5690 5687 5683 5680 5676 5672 5668 5664 5660 5656 5652 5649 5645 5642 5639 5636 5633 5630 5627 5624 5622 5620 5618 5617
5737 5735 5733 5731 5729 5727 5725 5723 5720 5718 5716 5713 5710 5707 5704 5700 5697 5694 5691 5687 5684 5680 5677 5672 5668 5663 5659 5654 5650 5646 5643 5639 5636 5632 5629 5625 5622 5619 5616 5613 5611 5609 5607
5734 5732 5730 5728 5726 5724 5722 5720 5718 5716 5713 5710 5707 5704 5701 5698 5695 5691 5688 5684 5681 5677 5673 5669 5664 5659 5654 5649 5645 5641 5637 5633 5629 5626 5622 5618 5615 5611 5608 5605 5602 5599 5597
5730 5729 5727 5725 5723 5721 5719 5717 5715 5713 5710 5708 5705 5702 5698 5695 5692 5688 5685 5681 5677 5673 5669 5665 5660 5655 5650 5645 5640 5636 5631 5627 5623 5619 5616 5612 5608 5604 5600 5597 5594 5591 5588
5727 5725 5723 5721 5720 5718 5716 5714 5712 5710 5707 5705 5702 5699 5695 5692 5688 5685 5681 5677 5673 5669 5665 5660 5655 5650 5645 5640 5635 5630 5625 5621 5617 5613 5609 5605 5601 5597 5593 5589 5586 5583 5580
5723 5721 5720 5718 5717 5715 5713 5711 5709 5707 5704 5701 5698 5695 5692 5689 5685 5682 5678 5674 5670 5665 5661 5656 5650 5645 5640 5635 5630 5625 5620 5616 5611 5607 5603 5599 5594 5590 5586 5582 5578 5575 5572
5719 5717 5716 5714 5713 5711 5710 5708 5706 5703 5701 5698 5695 5692 5689 5686 5682 5678 5674 5670 5666 5661 5656 5651 5646 5641 5635 5630 5625 5620 5615 5610 5606 5601 5597 5592 5588 5583 5579 5575 5571 5568 5565
5715 5713 5712 5710 5709 5707 5706 5704 5702 5700 5697 5695 5692 5689 5686 5682 5679 5675 5671 5667 5662 5658 5653 5648 5642 5637 5632 5626 5621 5616 5611 5606 5601 5596 5591 5586 5582 5577 5573 5568 5564 5561 5558
5710 5709 5708 5706 5705 5703 5702 5700 5698 5696 5694 5691 5688 5685 5682 5679 5675 5671 5667 5663 5658 5654 5649 5644 5638 5633 5628 5622 5617 5611 5606 5600 5595 5590 5585 5581 5576 5571 5567 5563 5559 5555 5552
5705 5704 5703 5702 5701 5699 5698 5696 5694 5692 5690 5688 5685 5682 5679 5675 5672 5668 5664 5660 5655 5650 5645 5640 5635 5630 5624 5618 5612 5606 5601 5595 5590 5585 5580 5576 5571 5567 5562 5558 5554 5550 5547
5700 5699 5698 5697 5696 5694 5693 5692 5690 5688 5686 5684 5681 5678 5675 5672 5668 5664 5660 5656 5651 5646 5641 5636 5631 5626 5620 5614 5608 5603 5597 5592 5586 5581 5576 5571 5567 5562 5558 5554 5550 5547 5543
5695 5694 5693 5692 5691 5690 5689 5687 5686 5684 5682 5680 5677 5675 5671 5668 5664 5660 5656 5652 5648 5643 5638 5633 5627 5622 5616 5611 5605 5599 5594 5588 5583 5578 5573 5568 5563 5559 5555 5551 5547 5544 5540
5689 5688 5688 5687 5686 5685 5684 5683 5681 5680 5678 5676 5673 5670 5667 5664 5660 5656 5652 5648 5644 5639 5634 5629 5624 5618 5613 5607 5601 5596 5591 5585 5580 5575 5570 5565 5561 5556 5552 5548 5544 5541 5537
5683 5683 5682 5681 5681 5680 5679 5678 5677 5675 5674 5671 5669 5666 5663 5660 5656 5652 5648 5644 5639 5635 5630 5625 5620 5615 5609 5603 5598 5593 5588 5583 5577 5573 5568 5563 5558 5554 5550 5546 5542 5539 5535
5677 5677 5676 5676 5675 5674 5674 5673 5672 5671 5669 5667 5664 5662 5659 5655 5652 5648 5644 5640 5636 5631 5626 5620 5615 5610 5605 5600 5595 5590 5585 5580 5575 5570 5565 5561 5556 5552 5548 5544 5540 5536 5533
5671 5671 5670 5670 5669 5669 5669 5668 5667 5666 5664 5662 5660 5657 5654 5651 5647 5644 5640 5636 5632 5627 5621 5616 5611 5606 5601 5596 5591 5586 5581 5577 5572 5567 5563 5558 5554 5549 5545 5541 5538 5534 5530
5665 5664 5664 5664 5663 5663 5663 5662 5661 5660 5659 5657 5655 5652 5649 5646 5643 5639 5636 5632 5627 5622 5617 5612 5607 5602 5597 5592 5587 5583 5578 5573 5569 5564 5559 5555 5551 5547 5543 5539 5535 5532 5528
5658 5658 5658 5657 5657 5657 5657 5656 5656 5655 5654 5652 5650 5647 5644 5641 5638 5635 5631 5627 5622 5618 5613 5608 5603 5598 5593 5588 5583 5579 5574 5570 5565 5561 5556 5552 5548 5544 5540 5536 5532 5529 5526